Theta_e
329 329 331 328 331 334 334 337 338 339 340 341 343 343 342 343 344 347 345 344 339 339 340 340 337 337 333 331 329 328 328 328 325 322 326 327 327 329 328 327 327 327 327 326
329 330 331 331 329 335 335 336 336 342 342 344 346 344 341 341 339 342 344 345 338 334 333 335 340 337 334 332 330 329 329 327 324 323 326 330 326 327 329 327 328 328 327 327
331 331 334 332 329 335 336 335 334 341 339 341 344 348 344 340 340 342 342 341 336 333 335 336 340 338 336 333 332 331 331 325 326 327 331 327 323 326 327 328 326 328 329 327
330 329 331 331 333 329 330 333 337 341 340 346 340 349 346 342 344 344 341 338 335 335 337 339 343 338 337 336 334 334 334 331 328 329 332 330 331 328 329 330 329 327 326 326
329 329 329 328 331 330 332 335 337 341 343 342 345 344 345 346 345 346 343 338 335 336 338 341 341 339 338 336 336 335 335 334 332 331 332 336 331 332 333 329 328 327 327 327
328 328 328 327 329 330 333 336 340 338 342 348 341 344 346 346 348 346 344 339 336 336 340 342 342 339 338 337 337 336 337 338 336 334 333 335 333 331 332 330 327 329 327 328
330 331 328 329 329 328 331 336 339 339 345 349 340 340 337 342 344 339 335 338 337 334 337 341 342 342 340 340 339 337 338 340 339 335 336 335 333 333 332 331 330 328 327 328
329 331 329 331 331 329 331 338 337 343 341 342 343 348 339 340 338 339 336 338 338 333 333 337 341 343 343 341 339 338 339 341 340 337 337 338 335 334 332 332 332 328 328 328
331 333 329 332 331 331 332 336 334 340 339 343 347 346 340 340 342 342 342 337 336 333 335 336 340 342 342 341 340 339 340 341 341 339 338 338 337 335 333 333 332 331 332 329
330 329 330 335 335 334 337 335 333 339 343 346 347 347 344 342 343 343 340 338 335 333 334 338 339 343 342 341 341 341 341 341 341 331 334 338 337 336 334 333 333 333 332 331
330 332 334 337 337 336 335 335 342 338 344 347 345 344 338 346 341 337 341 336 334 331 335 336 339 341 343 343 342 341 340 340 341 334 328 332 336 337 336 334 334 334 333 332
333 335 336 339 335 334 336 340 341 346 343 344 343 345 342 343 339 339 340 336 334 331 331 333 337 339 340 341 342 341 340 340 339 338 336 331 332 331 335 335 334 332 331 331
342 336 338 342 335 337 338 336 335 337 337 341 339 345 343 340 337 335 335 335 334 333 333 332 333 338 339 339 341 341 341 339 338 338 339 338 334 333 335 332 330 330 330 330
343 344 347 341 337 337 339 340 336 331 335 336 342 342 343 341 340 338 338 335 336 333 333 332 331 335 337 339 340 341 342 341 340 340 338 336 335 336 334 329 329 330 331 331
346 348 339 339 338 338 338 337 334 333 334 340 341 340 340 337 337 337 334 335 337 335 333 334 334 333 336 339 340 340 341 340 338 340 338 336 335 331 328 329 332 333 333 329
339 341 345 342 340 337 341 336 333 334 338 336 338 341 338 338 337 341 340 340 339 339 338 336 336 335 337 339 339 340 339 339 337 334 333 335 330 328 329 332 331 332 327 326
342 343 341 341 341 340 343 337 337 334 337 342 347 345 341 340 339 340 339 340 339 338 337 337 336 337 338 338 339 339 339 337 335 333 332 332 329 327 331 331 329 325 325 325
341 342 341 341 343 346 342 339 337 340 344 346 346 343 340 339 336 336 335 336 337 338 338 336 336 339 338 338 337 337 336 335 333 332 333 327 326 328 330 328 325 324 325 324
336 341 341 337 340 343 341 343 341 344 352 347 346 343 340 338 335 336 336 337 338 336 337 339 340 340 338 336 334 334 332 330 332 334 330 325 324 321 322 323 323 323 323 323
336 339 339 336 337 349 348 343 338 340 354 346 342 342 340 338 339 338 339 336 335 338 339 340 338 335 337 335 335 328 326 330 328 327 323 321 320 320 321 322 322 322 322 321
338 344 341 338 339 349 344 342 339 347 353 344 341 340 338 339 338 337 334 334 338 336 337 339 339 337 333 335 333 327 331 327 325 325 321 320 319 319 319 321 321 321 321 320
341 346 341 347 349 354 340 343 354 349 344 340 340 340 339 337 335 335 335 334 337 336 339 341 339 336 333 332 334 330 330 327 324 320 318 318 318 319 318 320 320 320 320 320
338 342 342 343 346 342 335 340 345 342 340 339 340 339 338 337 336 334 335 336 337 338 339 341 339 338 334 336 333 327 325 325 322 320 316 317 319 318 318 319 319 320 321 320
338 333 343 337 343 338 335 338 342 339 338 338 338 336 336 337 336 335 336 338 338 340 337 335 332 337 330 329 330 330 325 322 321 318 316 319 319 318 317 319 318 319 320 319
340 337 345 341 338 345 346 344 342 340 338 339 338 337 337 336 337 337 338 338 337 337 339 338 336 334 331 330 328 326 324 320 318 316 317 320 318 317 318 318 317 317 319 318
340 340 345 346 342 344 341 337 339 337 340 339 337 338 339 338 337 337 336 338 336 337 338 336 335 334 331 329 327 326 323 321 319 319 318 317 320 319 319 318 318 320 319 319
Wind_Speed
9 6 6 9 5 5 6 3 6 8 19 19 22 9 5 4 14 14 12 29 4 2 6 27 29 32 35 33 31 26 22 20 16 13 11 10 8 7 10 11 9 6 1 3
10 6 4 3 8 5 7 6 5 15 12 13 15 14 6 10 2 13 6 13 8 7 9 13 23 26 32 35 31 26 22 20 16 14 12 5 3 1 4 3 10 6 5 5
7 13 16 9 8 4 2 9 6 6 7 7 3 5 5 3 5 9 9 10 7 10 9 9 12 21 25 32 31 25 21 18 15 12 6 5 5 4 5 5 5 6 5 5
6 11 19 17 9 8 6 8 9 9 5 1 5 2 2 4 7 9 12 13 7 9 9 8 8 21 24 25 26 21 16 13 12 10 8 5 5 4 5 6 10 4 5 7
10 11 16 17 10 6 1 8 6 4 5 6 1 3 3 7 7 20 22 16 8 9 9 10 17 17 19 25 22 17 14 10 9 10 9 3 5 5 3 6 1 5 8 9
10 12 8 11 14 6 2 6 6 6 4 1 8 6 2 7 8 17 8 9 7 9 9 10 22 25 23 22 19 16 13 11 11 12 11 6 3 2 0 2 3 4 4 12
11 8 12 14 8 9 4 6 4 5 3 5 10 7 3 10 12 15 3 2 4 9 9 9 9 18 22 22 19 17 16 16 13 15 11 8 6 5 5 5 2 2 6 5
5 11 9 16 18 10 1 8 5 4 4 3 13 3 2 5 7 6 4 4 5 9 9 9 13 18 21 20 17 17 20 17 14 13 13 12 9 9 8 9 5 2 6 1
4 6 12 16 5 10 9 5 6 4 2 4 1 6 1 10 7 13 13 7 7 8 10 10 14 18 20 20 16 19 23 20 17 12 16 16 13 10 9 4 6 5 3 4
8 3 5 6 10 13 7 1 6 4 3 3 3 2 3 9 7 0 3 7 5 7 9 9 11 18 21 22 17 17 25 21 15 21 18 14 15 14 11 10 9 7 8 8
2 4 6 6 2 4 5 4 8 2 1 4 4 3 3 2 4 7 10 5 7 8 9 8 11 14 22 22 21 21 19 22 19 16 12 11 7 17 16 14 11 9 8 7
4 3 2 2 7 4 7 8 7 4 5 5 4 5 4 8 9 17 9 9 5 8 9 8 15 17 11 13 25 20 17 21 18 11 10 16 25 16 12 13 7 5 7 7
4 2 3 10 8 4 3 5 3 3 3 3 4 4 11 9 11 15 14 9 3 6 7 4 6 13 13 10 13 19 18 17 18 13 13 21 19 12 11 8 6 6 6 6
6 2 2 4 10 4 4 4 8 7 3 1 4 4 6 13 10 3 6 7 4 8 6 5 3 10 16 15 11 8 9 8 16 16 12 16 14 13 14 10 10 8 5 1
3 1 5 9 9 7 8 9 13 12 5 7 6 8 3 6 7 5 8 6 7 2 5 5 6 7 17 17 15 13 11 5 0 13 13 18 17 17 12 11 9 10 4 1
8 2 4 6 7 7 6 13 13 19 15 6 8 8 5 8 10 11 9 9 6 5 6 7 4 9 15 19 17 15 10 13 4 3 4 17 14 10 12 13 9 9 7 3
1 3 2 4 4 4 4 1 2 6 4 5 8 3 9 12 11 6 8 7 7 8 7 7 8 10 13 16 14 13 11 11 6 3 7 12 10 2 12 13 12 8 6 4
4 2 1 4 2 1 4 9 1 6 9 10 10 10 8 8 7 9 8 7 8 7 7 7 11 5 9 10 7 6 14 8 5 7 10 10 9 9 12 11 9 8 5 3
3 3 1 1 1 1 8 9 4 9 5 8 7 9 9 8 8 6 8 6 5 6 9 10 11 33 31 19 24 19 19 32 26 8 11 3 5 7 6 8 7 6 3 4
1 6 4 3 2 4 8 12 13 14 0 6 8 7 6 6 4 5 7 6 8 13 18 17 18 12 10 13 2 2 12 16 24 20 1 2 4 9 7 5 3 2 1 4
4 4 6 5 5 2 3 9 8 1 5 5 6 4 5 3 3 5 7 9 9 14 19 14 10 10 15 10 9 1 12 8 7 6 2 7 8 6 6 4 4 3 4 7
6 6 2 2 6 4 3 5 4 5 5 6 3 3 4 4 6 6 7 8 8 12 16 17 19 17 13 13 15 18 12 6 8 3 6 6 7 5 3 4 3 4 7 10
4 1 4 5 5 6 6 4 6 6 6 3 3 4 3 5 4 7 7 8 9 16 19 21 21 16 17 16 14 15 11 8 6 3 5 4 2 3 4 4 6 8 12 15
9 6 5 5 7 4 7 7 6 7 6 3 6 6 5 5 7 7 7 7 11 17 12 10 3 11 13 13 9 6 5 3 1 2 4 7 6 7 9 9 11 12 14 19
4 4 1 5 13 5 7 7 6 4 5 8 7 5 3 7 7 6 6 6 11 13 11 8 12 16 11 8 2 1 3 5 7 8 9 6 10 13 15 16 17 18 18 17
4 8 5 4 12 5 3 2 2 6 6 8 6 4 8 10 7 9 6 7 14 13 8 9 5 5 3 1 1 3 8 8 9 10 9 12 12 17 18 20 20 19 22 22
Wind_Direction
296 330 311 11 212 186 29 269 233 63 106 86 57 1 39 249 49 359 339 1 281 278 236 185 172 163 163 161 158 160 163 170 176 177 185 209 230 236 220 218 208 225 283 250
312 273 326 344 295 83 334 334 19 108 110 93 114 239 61 6 119 210 248 248 275 85 58 55 154 151 157 159 162 164 168 173 179 182 189 236 206 150 189 141 197 184 201 266
313 306 315 319 311 65 241 27 43 105 103 89 105 10 15 341 306 295 282 264 258 94 68 30 135 146 151 160 163 167 174 177 179 173 203 243 237 270 274 252 224 237 221 197
303 329 329 330 339 63 3 11 34 55 71 51 111 79 221 16 318 325 298 304 120 96 77 47 86 149 155 155 159 166 172 173 176 184 212 232 259 291 226 164 163 178 206 251
294 325 319 319 296 15 322 59 20 103 44 45 71 187 59 66 347 342 304 276 115 113 100 82 87 119 130 148 160 164 168 170 183 196 216 238 290 357 139 137 274 293 241 236
290 299 274 285 318 286 300 67 64 65 100 263 278 162 165 159 152 235 256 338 96 118 109 98 127 137 148 160 160 163 173 185 194 203 206 210 243 289 192 303 290 285 287 236
317 294 281 278 302 310 257 69 355 14 24 216 8 58 185 186 193 227 218 237 336 106 127 134 133 145 156 158 164 171 188 198 201 205 209 210 211 232 247 245 322 312 30 124
259 312 317 319 298 215 315 118 128 278 328 328 34 304 33 168 250 260 202 250 243 132 126 138 144 150 152 155 167 178 199 206 202 207 215 215 216 227 247 264 239 311 332 37
252 277 323 330 12 56 321 64 169 136 106 74 18 299 28 162 214 254 221 268 208 131 138 123 115 146 155 162 183 195 201 201 202 211 222 215 215 224 239 207 229 254 301 270
236 322 301 7 10 5 65 342 20 39 352 35 233 221 283 330 335 130 301 116 49 143 121 127 134 157 166 175 189 203 202 208 190 203 224 239 223 231 231 231 248 259 272 281
19 100 304 39 30 290 356 11 48 83 180 172 173 237 183 21 53 6 278 233 120 104 131 145 156 165 175 186 184 202 211 207 193 201 258 227 283 245 249 228 246 263 268 274
336 135 339 209 248 232 119 136 114 130 270 225 108 269 156 193 212 206 254 254 115 128 130 151 167 162 183 182 193 195 215 188 187 225 246 183 218 226 236 244 238 267 280 287
354 355 28 336 346 356 139 196 144 167 301 311 88 265 181 198 221 239 263 122 143 112 92 157 182 164 175 176 165 194 183 196 201 200 190 198 204 200 206 224 244 249 257 288
90 344 158 178 238 258 313 282 200 176 127 243 169 200 132 196 204 69 100 168 158 151 162 239 252 167 172 175 179 187 186 196 219 195 202 186 179 198 211 215 223 238 219 196
95 276 7 325 38 44 23 337 47 34 346 90 186 85 66 65 76 22 2 345 96 200 306 278 251 189 176 171 178 184 178 188 140 200 196 178 186 193 213 225 202 180 187 205
330 251 8 323 7 34 57 35 25 61 324 39 73 59 69 48 48 58 48 35 30 13 22 35 290 227 184 176 184 188 178 177 172 143 189 190 206 224 220 187 168 147 140 140
291 336 30 277 25 336 17 247 313 304 352 53 70 69 44 34 23 37 36 19 354 340 2 1 340 324 189 187 194 148 189 151 158 223 253 264 172 177 156 146 139 129 135 157
213 130 9 258 53 319 298 310 39 10 330 49 47 38 48 35 23 49 14 358 351 350 333 328 353 328 138 113 170 193 150 159 161 230 297 72 87 103 156 153 149 145 159 164
10 337 359 188 82 270 352 327 8 22 354 31 48 37 33 0 352 335 353 358 357 345 335 338 14 51 35 29 69 58 43 351 343 76 42 352 57 70 111 130 133 127 147 201
323 239 133 317 254 193 216 231 241 195 292 343 64 48 20 14 30 280 318 341 339 352 355 31 109 121 150 116 180 96 94 26 54 14 48 49 61 59 52 70 83 105 255 269
350 334 189 235 214 103 141 287 292 126 215 68 75 62 13 12 239 273 343 344 359 6 354 31 97 134 162 174 203 3 112 129 104 102 283 95 53 36 330 281 308 303 281 288
178 175 241 29 48 274 219 11 98 181 88 107 74 88 5 349 345 339 333 344 344 352 30 75 87 95 135 147 105 113 116 109 98 80 102 45 17 332 302 252 255 269 279 280
43 131 169 143 207 217 216 182 148 126 130 131 147 97 39 10 350 343 329 355 21 16 51 72 85 87 96 108 117 115 132 157 164 105 32 357 277 312 315 245 283 273 273 271
337 40 313 53 8 216 212 222 121 128 154 199 100 74 46 27 5 2 20 21 29 43 50 49 40 93 104 105 129 161 174 180 176 339 337 326 297 290 301 283 276 282 288 276
199 87 162 22 328 346 71 106 110 78 47 85 68 39 17 62 32 31 38 34 16 14 31 61 106 123 144 148 109 54 1 331 323 327 330 321 316 313 305 298 279 276 276 268
229 160 161 196 214 143 163 340 195 143 119 114 85 356 70 68 42 40 23 22 2 14 29 63 75 117 146 309 335 324 336 329 321 322 327 323 321 321 316 302 295 279 272 274